Location: Bright Sky Observatory
(40.7821°N, 74.2425°W)
Time: 18:48:32
(UTC-05:00)

Amateur Radio Satellites - All Passes

Search period start: 03 December 2016 18:18
Search period end: 04 December 2016 18:18
Location: Bright Sky Observatory, 40.7821°N, 74.2425°W

Satellite Date Start Highest point End Downlink Frequencies (MHz)
Time Altitude Azimuth
SEEDS 03 Dec 18:26:21 18:29:50 26° 69° (ENE) 18:33:20 437.485
CUBESAT XI-V 03 Dec 18:31:38 18:33:50 13° 298° (WNW) 18:36:02 437.345
Cubesat XI-IV 03 Dec 18:35:44 18:39:56 23° 266° (W) 18:44:10 437.490
COMPASS 1 03 Dec 18:42:19 18:45:46 26° 69° (ENE) 18:49:14 437.405
AIST 1 03 Dec 18:42:42 18:43:39 11° 83° (E) 18:44:37
NOAA 15 03 Dec 18:44:03 18:47:20 17° 268° (W) 18:50:38 137.62
Cosmos 2504 03 Dec 18:49:00 18:55:33 27° 81° (E) 19:02:25 435.465 / 435.565
AIST 2 03 Dec 18:49:48 18:52:20 16° 250° (WSW) 18:54:51 435.215
RS-15 03 Dec 18:51:56 19:01:48 30° 258° (WSW) 19:11:26 29.354- 29.394
CUBEBUG 2 03 Dec 18:53:02 18:57:20 35° 70° (ENE) 19:01:38 437.445
ZACube-1 03 Dec 18:54:59 18:57:31 15° 64° (ENE) 19:00:03 437.345
FUNcube-1 03 Dec 19:03:58 19:06:51 17° 65° (ENE) 19:09:43 145.935
CUTE 1.7 + AOD 2 03 Dec 19:12:23 19:16:33 60° 260° (W) 19:20:44 437.475
HO-68 03 Dec 19:14:29 19:21:35 66° 257° (WSW) 19:28:45 435.675
Cosmos 2491 03 Dec 19:16:33 19:24:43 47° 272° (W) 19:32:52 435.465 / 435.565
STRAND 1 03 Dec 19:20:30 19:25:38 76° 104° (ESE) 19:30:42 437.568
ISS 03 Dec 19:22:27 19:24:34 16° 347° (NNW) 19:26:41 145.825
CANX-2 03 Dec 19:30:16 19:34:04 32° 263° (W) 19:37:53 2200.000
Oscar 11 03 Dec 19:37:09 19:41:01 33° 71° (ENE) 19:44:55 145.826/435.025
DELFI C3 03 Dec 19:40:34 19:42:03 12° 64° (ENE) 19:43:33 145.870
UWE-3 03 Dec 19:41:08 19:45:47 71° 75° (ENE) 19:50:25 435.000/436.395/437.385
YUBILEINY 03 Dec 19:43:29 19:52:09 72° 280° (W) 20:00:56 435.215
CUSAT 1 03 Dec 19:44:47 19:47:31 21° 77° (ENE) 19:50:44 437.405
AAUSAT CUBESAT 2 03 Dec 19:49:38 19:53:43 66° 259° (W) 19:57:49 437.432
CINEMA 3 03 Dec 19:54:21 19:57:28 17° 270° (W) 20:00:41 145.822/145.860
SEEDS 03 Dec 20:02:03 20:05:28 24° 265° (W) 20:08:54 437.485
AIST 1 03 Dec 20:16:24 20:20:38 60° 280° (W) 20:24:56
SO-50 03 Dec 20:17:16 20:21:54 52° 118° (ESE) 20:26:30 436.795
COMPASS 1 03 Dec 20:17:53 20:21:16 24° 265° (W) 20:24:38 437.405
PCSat 03 Dec 20:20:13 20:25:14 36° 53° (NE) 20:30:12 145.827
ZACube-1 03 Dec 20:28:49 20:33:19 57° 260° (W) 20:37:48 437.345
CUBEBUG 2 03 Dec 20:30:07 20:33:58 24° 266° (W) 20:37:51 437.445
FUNcube-1 03 Dec 20:38:17 20:42:41 49° 261° (W) 20:47:05 145.935
Cosmos 2504 03 Dec 20:40:00 20:48:09 65° 281° (W) 20:56:54 435.465 / 435.565
HUMSAT D 03 Dec 20:45:54 20:49:47 36° 72° (ENE) 20:53:38 437.325/437.525
PRISM 03 Dec 20:59:19 21:03:24 57° 101° (E) 21:07:30 437.425
ISS 03 Dec 21:00:22 21:02:07 13° 7° (N) 21:03:52 145.825
STRAND 1 03 Dec 21:01:35 21:04:08 14° 300° (WNW) 21:06:41 437.568
DELFI C3 03 Dec 21:12:34 21:16:24 53° 260° (W) 21:20:15 145.870
TIGRISAT 03 Dec 21:13:31 21:16:18 16° 92° (E) 21:19:03 435.000
Oscar 11 03 Dec 21:13:57 21:17:13 21° 266° (W) 21:20:29 145.826/435.025
ANTELSAT 03 Dec 21:14:05 21:17:04 18° 92° (E) 21:20:00 437.575/2403.000
ESTCUBE 1 03 Dec 21:17:15 21:19:17 13° 62° (ENE) 21:21:19 437.505/2401.250
UWE-3 03 Dec 21:21:12 21:22:40 11° 271° (W) 21:24:09 435.000/436.395/437.385
CUSAT 1 03 Dec 21:26:26 21:29:18 22° 264° (W) 21:32:43 437.405
DANDE 03 Dec 21:45:34 21:48:13 48° 262° (W) 21:51:20 436.750
YUBILEINY 03 Dec 21:46:26 21:50:42 14° 302° (WNW) 21:55:01 435.215
SO-50 03 Dec 21:58:57 22:02:39 22° 315° (NW) 22:06:20 436.795
JAS-2 03 Dec 22:00:19 22:01:07 10° 89° (E) 22:01:55 435.910
PCSat 03 Dec 22:03:44 22:08:32 33° 250° (WSW) 22:13:19 145.827
CUBEBUG 1 03 Dec 22:06:49 22:10:22 25° 68° (ENE) 22:13:58 437.445
VELOX 1 03 Dec 22:11:04 22:14:16 20° 66° (ENE) 22:17:29 145.980
UNISAT 6 03 Dec 22:17:57 22:22:24 88° 284° (WNW) 22:26:43 437.425
HUMSAT D 03 Dec 22:22:33 22:25:29 18° 267° (W) 22:28:25 437.325/437.525
DX 1 03 Dec 22:33:30 22:36:32 19° 65° (ENE) 22:39:36 434.975-435.025
POPSAT HIP 1 03 Dec 22:34:42 22:36:55 14° 91° (E) 22:39:07 437.405
ISS 03 Dec 22:36:22 22:39:24 32° 27° (NNE) 22:42:25 145.825
PRISM 03 Dec 22:36:23 22:38:13 13° 297° (WNW) 22:40:03 437.425
Cosmos 2504 03 Dec 22:40:05 22:43:35 13° 304° (NW) 22:47:08 435.465 / 435.565
UKube-1 03 Dec 22:45:56 22:48:57 19° 65° (ENE) 22:52:00 .
TIGRISAT 03 Dec 22:49:02 22:53:13 43° 288° (WNW) 22:57:19 435.000
ANTELSAT 03 Dec 22:49:49 22:53:58 40° 289° (WNW) 22:58:00 437.575/2403.000
ESTCUBE 1 03 Dec 22:51:06 22:55:32 64° 259° (WSW) 23:00:00 437.505/2401.250
SPROUT 03 Dec 23:02:57 23:07:02 44° 72° (ENE) 23:11:08 437.525
AISAT 03 Dec 23:08:49 23:13:14 87° 73° (ENE) 23:17:42 437.250
50 SAT 03 Dec 23:23:48 23:27:17 73° 257° (WSW) 23:30:49 437.505
BUGSAT 1 03 Dec 23:26:42 23:29:32 17° 93° (E) 23:32:20 437.445
NANOSAT C BR1 03 Dec 23:29:43 23:33:54 56° 100° (E) 23:38:02 145.865
QB50P2 03 Dec 23:32:55 23:37:11 72° 103° (ESE) 23:41:23 145.880/145.840
POLYITAN 1 03 Dec 23:33:32 23:37:47 68° 102° (ESE) 23:41:58 437.675
JAS-2 03 Dec 23:41:39 23:46:51 81° 285° (WNW) 23:52:13 435.910
CUBEBUG 1 03 Dec 23:42:47 23:46:33 28° 264° (W) 23:50:21 437.445
VELOX 1 03 Dec 23:46:21 23:50:27 38° 262° (W) 23:54:36 145.980
QB50P1 03 Dec 23:47:27 23:51:44 84° 284° (WNW) 23:55:57 145.935-145.965
Cosmos 2499 03 Dec 23:48:17 23:55:43 36° 84° (E) 00:03:27 435.465 / 435.565
DUCHIFAT 1 03 Dec 23:53:17 23:57:32 84° 282° (WNW) 00:01:43 145.980
DX 1 04 Dec 00:08:21 00:12:25 40° 261° (W) 00:16:32 434.975-435.025
POPSAT HIP 1 04 Dec 00:08:52 00:12:58 48° 287° (WNW) 00:17:01 437.405
ISS 04 Dec 00:12:53 00:15:54 33° 224° (SW) 00:18:54 145.825
GONETS M04 04 Dec 00:20:40 00:28:59 52° 90° (E) 00:37:18
UKube-1 04 Dec 00:20:41 00:24:42 38° 261° (W) 00:28:46 .
AUBIESAT-1 04 Dec 00:31:29 00:34:38 21° 60° (ENE) 00:37:56 437.475
TISAT 1 04 Dec 00:33:54 00:38:07 77° 76° (ENE) 00:42:23 437.305
SPROUT 04 Dec 00:40:33 00:43:10 16° 268° (W) 00:45:48 437.525
M-CUBED/EXP-1 PRIME 04 Dec 00:40:54 00:44:30 32° 64° (ENE) 00:48:22 437.505
SWISSCUBE 04 Dec 00:50:15 00:54:13 27° 67° (ENE) 00:58:11 437.505
BEESAT 04 Dec 00:54:36 00:58:33 26° 67° (ENE) 01:02:30 436.000
BUGSAT 1 04 Dec 01:01:08 01:05:02 37° 289° (WNW) 01:08:52 437.445
Gurwin Techsat 1B 04 Dec 01:04:19 01:08:33 24° 94° (E) 01:12:45 435.225
NANOSAT C BR1 04 Dec 01:07:08 01:09:07 13° 297° (WNW) 01:11:08 145.865
QB50P2 04 Dec 01:11:22 01:12:21 11° 298° (WNW) 01:13:21 145.880/145.840
POLYITAN 1 04 Dec 01:11:43 01:12:59 11° 298° (WNW) 01:14:15 437.675
ITUPSAT 1 04 Dec 01:19:48 01:24:21 46° 71° (ENE) 01:28:56 437.325
O/OREOS (USA 219) 04 Dec 01:20:04 01:23:50 26° 59° (ENE) 01:27:35 437.305
Oscar 19 04 Dec 01:27:56 01:33:09 78° 103° (ESE) 01:38:21 437.125/150
Cosmos 2499 04 Dec 01:40:17 01:48:29 52° 284° (WNW) 01:57:06 435.465 / 435.565
PHONESAT 2.4 04 Dec 01:52:10 01:54:43 42° 163° (SSE) 01:57:16 2401.200-2431.200
ITAMSAT 1 04 Dec 01:52:38 01:55:22 14° 91° (E) 01:58:06 435.822/435.867
AO-85 04 Dec 02:00:30 02:05:15 45° 117° (ESE) 02:09:40 145.980
AO-7 04 Dec 02:02:08 02:06:49 16° 89° (E) 02:11:28 29.400- 29.500
AUBIESAT-1 04 Dec 02:05:05 02:08:46 35° 258° (WSW) 02:12:45 437.475
M-CUBED/EXP-1 PRIME 04 Dec 02:15:54 02:19:02 22° 262° (W) 02:22:21 437.505
GONETS M04 04 Dec 02:18:20 02:26:04 35° 289° (WNW) 02:33:49
MOZHAYETS 4 04 Dec 02:22:15 02:26:38 46° 72° (ENE) 02:31:01
SWISSCUBE 04 Dec 02:27:36 02:31:52 32° 263° (W) 02:36:09 437.505
BEESAT 04 Dec 02:31:54 02:36:10 33° 263° (W) 02:40:29 436.000
Gurwin Techsat 1B 04 Dec 02:43:39 02:48:39 43° 290° (WNW) 02:53:38 435.225
ITUPSAT 1 04 Dec 02:59:04 03:02:23 19° 267° (W) 03:05:44 437.325
O/OREOS (USA 219) 04 Dec 02:59:19 03:03:13 30° 256° (WSW) 03:07:06 437.305
Oscar 19 04 Dec 03:09:12 03:11:48 14° 300° (WNW) 03:14:24 437.125/150
KKS-1 04 Dec 03:10:12 03:14:37 66° 74° (ENE) 03:19:04 437.445
STARS 04 Dec 03:23:15 03:27:26 42° 71° (ENE) 03:31:36 437.465
PHONESAT 2.4 04 Dec 03:27:15 03:29:54 87° 184° (S) 03:32:33 2401.200-2431.200
ITAMSAT 1 04 Dec 03:30:09 03:35:18 67° 287° (WNW) 03:40:25 435.822/435.867
AO-85 04 Dec 03:41:53 03:45:49 24° 312° (NW) 03:49:34 145.980
AO-7 04 Dec 03:52:16 04:00:41 83° 108° (ESE) 04:09:04 29.400- 29.500
CUBESAT XI-V 04 Dec 03:55:11 03:59:42 62° 74° (ENE) 04:04:14 437.345
MOZHAYETS 4 04 Dec 04:01:02 04:04:01 17° 268° (W) 04:07:00
YUBILEINY 04 Dec 04:01:59 04:03:32 10° 54° (NE) 04:05:06 435.215
HORYU 2 04 Dec 04:17:32 04:20:00 15° 92° (E) 04:22:28 437.375
BRITE-PL 04 Dec 04:23:57 04:28:39 29° 95° (E) 04:33:29 437.365/2234.400
BEESAT 3 04 Dec 04:37:03 04:40:01 21° 112° (ESE) 04:43:02 437.485
SO-50 04 Dec 04:48:59 04:53:19 42° 52° (NE) 04:57:34 436.795
KKS-1 04 Dec 04:50:15 04:51:37 11° 270° (W) 04:52:58 437.445
STRAND 1 04 Dec 05:00:11 05:02:39 14° 60° (ENE) 05:05:08 437.568
STARS 04 Dec 05:00:59 05:03:56 18° 267° (W) 05:06:56 437.465
BEESAT 2 04 Dec 05:01:25 05:04:05 18° 111° (ESE) 05:06:47 435.950
PHONESAT 2.4 04 Dec 05:02:31 05:05:06 47° 196° (SSW) 05:07:40 2401.200-2431.200
Cubesat XI-IV 04 Dec 05:13:03 05:16:38 18° 92° (E) 05:20:11 437.490
NOAA 15 04 Dec 05:18:03 05:22:08 22° 94° (E) 05:26:12 137.62
CUBESAT XI-V 04 Dec 05:35:34 05:37:29 12° 270° (W) 05:39:24 437.345
AO-7 04 Dec 05:46:18 05:52:31 24° 307° (NW) 05:58:43 29.400- 29.500
GOMX 1 04 Dec 05:49:38 05:55:07 80° 102° (ESE) 06:00:37 467.674
HORYU 2 04 Dec 05:52:32 05:56:50 50° 288° (WNW) 06:01:06 437.375
YUBILEINY 04 Dec 05:53:55 06:02:35 57° 77° (ENE) 06:11:14 435.215
BRITE-PL 04 Dec 06:02:11 06:07:05 38° 290° (WNW) 06:12:13 437.365/2234.400
DOVE 4 04 Dec 06:12:07 06:17:23 58° 100° (E) 06:22:29 437.250
CINEMA 3 04 Dec 06:12:15 06:14:39 14° 89° (E) 06:17:00 145.822/145.860
BEESAT 3 04 Dec 06:13:55 06:17:27 32° 309° (NW) 06:21:03 437.485
NOAA 18 04 Dec 06:16:13 06:21:31 44° 99° (E) 06:26:45 137.9125
LilacSat-2 04 Dec 06:20:24 06:24:10 77° 283° (WNW) 06:27:55 437.200
Cosmos 2491 04 Dec 06:20:35 06:28:42 44° 87° (E) 06:36:47 435.465 / 435.565
AIST 1 04 Dec 06:23:44 06:27:40 31° 76° (ENE) 06:31:34
CUTE-I 04 Dec 06:26:29 06:31:51 87° 104° (ESE) 06:37:11 437.470
SO-50 04 Dec 06:30:08 06:33:29 21° 249° (WSW) 06:36:46 436.795
Cosmos 2504 04 Dec 06:33:06 06:41:40 50° 75° (ENE) 06:49:46 435.465 / 435.565
STRAND 1 04 Dec 06:36:00 06:41:09 79° 257° (WSW) 06:46:18 437.568
BEESAT 2 04 Dec 06:37:52 06:41:35 39° 308° (NW) 06:45:21 435.950
PHONESAT 2.4 04 Dec 06:38:55 06:39:57 12° 210° (SSW) 06:41:00 2401.200-2431.200
HO-68 04 Dec 06:43:11 06:48:56 25° 94° (E) 06:54:38 435.675
Cubesat XI-IV 04 Dec 06:51:49 06:57:03 57° 288° (WNW) 07:02:14 437.490
NOAA 15 04 Dec 06:57:05 07:02:06 45° 290° (WNW) 07:07:05 137.62
CUTE 1.7 + AOD 2 04 Dec 06:57:57 07:01:17 22° 94° (E) 07:04:37 437.475
RS-15 04 Dec 07:00:17 07:11:22 52° 110° (ESE) 07:22:57 29.354- 29.394
AIST 2 04 Dec 07:10:46 07:11:24 10° 107° (ESE) 07:12:03 435.215
CANX-2 04 Dec 07:14:59 07:18:58 40° 98° (E) 07:22:57 2200.000
GOMX 1 04 Dec 07:29:31 07:32:29 15° 299° (WNW) 07:35:29 467.674
AAUSAT CUBESAT 2 04 Dec 07:32:44 07:35:42 19° 93° (E) 07:38:40 437.432
UWE-3 04 Dec 07:32:54 07:35:08 14° 90° (E) 07:37:19 435.000/436.395/437.385
SEEDS 04 Dec 07:45:04 07:49:09 52° 100° (E) 07:53:15 437.485
CINEMA 3 04 Dec 07:47:26 07:52:15 61° 286° (WNW) 07:56:49 145.822/145.860
PRISM 04 Dec 07:48:19 07:52:05 38° 71° (ENE) 07:55:52 437.425
DOVE 4 04 Dec 07:50:53 07:54:32 19° 296° (WNW) 07:58:09 437.250
YUBILEINY 04 Dec 07:51:30 07:58:51 31° 277° (W) 08:06:13 435.215
NOAA 18 04 Dec 07:57:24 08:01:54 26° 296° (WNW) 08:06:22 137.9125
COMPASS 1 04 Dec 07:59:49 08:03:52 51° 100° (E) 08:07:55 437.405
AIST 1 04 Dec 08:01:41 08:05:03 22° 272° (W) 08:08:24
CUTE-I 04 Dec 08:08:48 08:11:07 13° 301° (WNW) 08:13:26 437.470
TIGRISAT 04 Dec 08:11:58 08:14:53 17° 64° (ENE) 08:17:47 435.000
ANTELSAT 04 Dec 08:12:38 08:15:43 18° 65° (ENE) 08:18:49 437.575/2403.000
Cosmos 2491 04 Dec 08:17:24 08:25:32 41° 287° (WNW) 08:33:41 435.465 / 435.565
ZACube-1 04 Dec 08:17:58 08:21:34 26° 95° (E) 08:25:04 437.345
CUBEBUG 2 04 Dec 08:20:23 08:24:51 77° 103° (ESE) 08:29:07 437.445
FUNcube-1 04 Dec 08:26:51 08:30:36 30° 96° (E) 08:34:17 145.935
Cosmos 2504 04 Dec 08:26:59 08:34:43 36° 276° (W) 08:42:06 435.465 / 435.565
HO-68 04 Dec 08:29:59 08:37:04 62° 291° (WNW) 08:44:07 435.675
CUTE 1.7 + AOD 2 04 Dec 08:33:28 08:37:07 29° 290° (WNW) 08:40:46 437.475
AIST 2 04 Dec 08:45:10 08:49:15 70° 304° (NW) 08:53:25 435.215
CUSAT 1 04 Dec 08:48:41 08:51:03 18° 96° (E) 08:53:08 437.405
DELFI C3 04 Dec 08:50:41 08:53:31 19° 94° (E) 08:56:20 145.870
CANX-2 04 Dec 08:51:46 08:54:29 17° 294° (WNW) 08:57:14 2200.000
Oscar 11 04 Dec 08:59:57 09:04:16 72° 102° (ESE) 09:08:32 145.826/435.025
AAUSAT CUBESAT 2 04 Dec 09:07:31 09:11:15 33° 289° (WNW) 09:14:59 437.432
UWE-3 04 Dec 09:07:43 09:11:54 49° 287° (WNW) 09:15:58 435.000/436.395/437.385
RS-15 04 Dec 09:12:25 09:23:55 53° 314° (NW) 09:35:55 29.354- 29.394
DANDE 04 Dec 09:13:04 09:15:25 14° 94° (E) 09:17:30 436.750
UNISAT 6 04 Dec 09:15:41 09:20:23 78° 76° (ENE) 09:25:04 437.425
SEEDS 04 Dec 09:22:18 09:24:25 14° 296° (WNW) 09:26:30 437.485
PRISM 04 Dec 09:24:57 09:27:31 16° 267° (W) 09:30:06 437.425
POPSAT HIP 1 04 Dec 09:28:09 09:29:28 11° 62° (ENE) 09:30:48 437.405
COMPASS 1 04 Dec 09:36:52 09:38:59 14° 295° (WNW) 09:41:06 437.405
Cosmos 2499 04 Dec 09:42:21 09:45:23 12° 55° (NE) 09:48:21 435.465 / 435.565
TIGRISAT 04 Dec 09:46:31 09:51:07 54° 260° (W) 09:55:43 435.000
ANTELSAT 04 Dec 09:47:28 09:52:02 50° 261° (W) 09:56:35 437.575/2403.000
JAS-2 04 Dec 09:52:59 09:59:08 43° 70° (ENE) 10:04:37 435.910
ZACube-1 04 Dec 09:54:16 09:57:46 25° 292° (WNW) 10:01:11 437.345
CUBEBUG 2 04 Dec 09:59:53 10:00:45 10° 299° (WNW) 10:01:35 437.445
FUNcube-1 04 Dec 10:03:24 10:06:40 22° 293° (WNW) 10:09:53 145.935
HUMSAT D 04 Dec 10:04:29 10:08:34 71° 101° (E) 10:12:37 437.325/437.525
BUGSAT 1 04 Dec 10:17:04 10:19:03 13° 63° (ENE) 10:21:02 437.445
HO-68 04 Dec 10:20:50 10:23:21 12° 310° (NW) 10:25:51 435.675
NANOSAT C BR1 04 Dec 10:21:17 10:25:15 39° 71° (ENE) 10:29:16 145.865
DELFI C3 04 Dec 10:24:51 10:28:23 31° 289° (WNW) 10:31:55 145.870
QB50P2 04 Dec 10:24:51 10:29:00 50° 73° (ENE) 10:33:10 145.880/145.840
POLYITAN 1 04 Dec 10:25:28 10:29:36 48° 73° (ENE) 10:33:45 437.675
AIST 2 04 Dec 10:27:58 10:28:31 10° 323° (NW) 10:29:04 435.215
CUSAT 1 04 Dec 10:31:02 10:32:49 14° 284° (WNW) 10:34:28 437.405
GONETS M04 04 Dec 10:31:36 10:38:28 25° 66° (ENE) 10:45:18
AO-85 04 Dec 10:32:39 10:36:14 30° 50° (NE) 10:39:42 145.980
Oscar 11 04 Dec 10:38:41 10:39:47 11° 298° (WNW) 10:40:53 145.826/435.025
QB50P1 04 Dec 10:39:05 10:43:19 69° 75° (ENE) 10:47:36 145.935-145.965
ESTCUBE 1 04 Dec 10:44:06 10:47:55 26° 96° (E) 10:51:42 437.505/2401.250
DUCHIFAT 1 04 Dec 10:44:19 10:48:31 67° 76° (ENE) 10:52:47 145.980
DANDE 04 Dec 10:53:15 10:58:02 44° 281° (W) 11:01:40 436.750
UNISAT 6 04 Dec 10:56:49 10:57:34 10° 271° (W) 10:58:20 437.425
AISAT 04 Dec 11:00:13 11:03:08 17° 92° (E) 11:06:02 437.250
POPSAT HIP 1 04 Dec 11:00:23 11:04:39 70° 258° (WSW) 11:08:57 437.405
PCSat 04 Dec 11:01:50 11:06:37 33° 110° (ESE) 11:11:25 145.827
Oscar 19 04 Dec 11:08:22 11:10:59 14° 60° (ENE) 11:13:36 437.125/150
CUBEBUG 1 04 Dec 11:30:43 11:35:05 51° 100° (E) 11:39:24 437.445
RS-15 04 Dec 11:30:59 11:40:19 24° 346° (NNW) 11:49:49 29.354- 29.394
Cosmos 2499 04 Dec 11:32:00 11:40:37 62° 78° (ENE) 11:48:34 435.465 / 435.565
VELOX 1 04 Dec 11:36:17 11:40:28 38° 98° (E) 11:44:38 145.980
JAS-2 04 Dec 11:38:32 11:44:15 30° 263° (W) 11:49:26 435.910
BUGSAT 1 04 Dec 11:49:45 11:53:54 57° 259° (W) 11:58:07 437.445
DX 1 04 Dec 11:56:33 12:00:33 33° 98° (E) 12:04:32 434.975-435.025
NANOSAT C BR1 04 Dec 11:58:18 12:01:07 17° 267° (W) 12:03:59 145.865
QB50P2 04 Dec 12:02:52 12:05:04 14° 269° (W) 12:07:16 145.880/145.840
POLYITAN 1 04 Dec 12:03:17 12:05:39 14° 268° (W) 12:08:01 437.675
UKube-1 04 Dec 12:07:46 12:11:42 33° 98° (E) 12:15:36 .
AO-85 04 Dec 12:13:24 12:16:26 21° 248° (WSW) 12:19:25 145.980
TISAT 1 04 Dec 12:20:06 12:21:40 12° 91° (E) 12:23:13 437.305
ESTCUBE 1 04 Dec 12:20:47 12:24:39 29° 291° (WNW) 12:28:32 437.505/2401.250
50 SAT 04 Dec 12:23:15 12:26:46 60° 284° (WNW) 12:30:16 437.505
DUCHIFAT 1 04 Dec 12:24:18 12:24:38 10° 270° (W) 12:24:59 145.980
SPROUT 04 Dec 12:24:28 12:28:48 90° 173° (S) 12:33:04 437.525
Gurwin Techsat 1B 04 Dec 12:24:56 12:29:47 37° 68° (ENE) 12:34:39 435.225
GONETS M04 04 Dec 12:27:26 12:36:04 71° 267° (W) 12:44:44
AISAT 04 Dec 12:35:32 12:39:48 44° 288° (WNW) 12:44:03 437.250
Oscar 19 04 Dec 12:44:32 12:49:38 76° 257° (WSW) 12:54:48 437.125/150
PCSat 04 Dec 12:44:57 12:49:56 36° 308° (NW) 12:54:56 145.827
BEESAT 3 04 Dec 12:54:08 12:56:31 15° 43° (NE) 12:58:53 437.485
AO-7 04 Dec 13:00:41 13:07:04 26° 54° (NE) 13:13:27 29.400- 29.500
CUBEBUG 1 04 Dec 13:08:18 13:10:55 16° 296° (WNW) 13:13:32 437.445
ITAMSAT 1 04 Dec 13:09:49 13:13:52 23° 64° (ENE) 13:17:55 435.822/435.867
VELOX 1 04 Dec 13:13:23 13:16:39 20° 294° (WNW) 13:19:54 145.980
BEESAT 2 04 Dec 13:19:12 13:21:17 14° 41° (NE) 13:23:20 435.950
ITUPSAT 1 04 Dec 13:22:47 13:24:20 11° 90° (E) 13:25:52 437.325
Cosmos 2499 04 Dec 13:26:09 13:32:59 27° 279° (W) 13:39:29 435.465 / 435.565
DX 1 04 Dec 13:33:09 13:36:32 22° 294° (WNW) 13:39:55 434.975-435.025
UKube-1 04 Dec 13:44:11 13:47:32 22° 294° (WNW) 13:50:52 .
AUBIESAT-1 04 Dec 13:44:17 13:47:19 17° 96° (E) 13:50:17 437.475
RS-15 04 Dec 13:48:42 13:58:42 27° 22° (NNE) 14:08:36 29.354- 29.394
TISAT 1 04 Dec 13:53:29 13:57:39 57° 287° (WNW) 14:01:45 437.305
M-CUBED/EXP-1 PRIME 04 Dec 13:54:07 13:58:07 27° 100° (E) 14:01:59 437.505
Gurwin Techsat 1B 04 Dec 14:05:17 14:09:46 27° 265° (W) 14:14:17 435.225
MOZHAYETS 4 04 Dec 14:20:07 14:21:06 11° 89° (E) 14:22:05
SWISSCUBE 04 Dec 14:27:15 14:31:59 64° 101° (ESE) 14:36:41 437.505
GONETS M04 04 Dec 14:28:12 14:31:11 12° 286° (WNW) 14:34:10
BEESAT 3 04 Dec 14:30:35 14:34:32 61° 240° (WSW) 14:38:26 437.485
BEESAT 04 Dec 14:31:31 14:36:15 63° 102° (ESE) 14:40:57 436.000
ITAMSAT 1 04 Dec 14:48:04 14:53:02 44° 261° (W) 14:58:02 435.822/435.867
AO-7 04 Dec 14:50:42 14:58:59 78° 253° (WSW) 15:07:22 29.400- 29.500
BEESAT 2 04 Dec 14:55:31 14:59:33 74° 241° (WSW) 15:03:33 435.950
ITUPSAT 1 04 Dec 14:57:54 15:02:39 72° 285° (WNW) 15:07:22 437.325
KKS-1 04 Dec 15:03:12 15:05:14 13° 91° (E) 15:07:15 437.445
HORYU 2 04 Dec 15:15:39 15:18:08 15° 63° (ENE) 15:20:37 437.375
AUBIESAT-1 04 Dec 15:17:30 15:21:58 48° 293° (WNW) 15:26:15 437.475
M-CUBED/EXP-1 PRIME 04 Dec 15:28:21 15:32:31 32° 296° (WNW) 15:36:34 437.505
AIST 2 04 Dec 15:30:55 15:31:32 10° 37° (NE) 15:32:08 435.215
O/OREOS (USA 219) 04 Dec 15:31:59 15:35:58 30° 104° (ESE) 15:39:57 437.305
BRITE-PL 04 Dec 15:35:33 15:39:04 25° 67° (ENE) 15:42:46 437.365/2234.400
CUBESAT XI-V 04 Dec 15:53:03 15:55:55 16° 92° (E) 15:58:46 437.345
MOZHAYETS 4 04 Dec 15:54:11 15:58:44 71° 285° (WNW) 16:03:16
RS-15 04 Dec 16:02:01 16:14:21 65° 51° (NE) 16:26:17 29.354- 29.394
NOAA 18 04 Dec 16:05:57 16:07:56 12° 56° (NE) 16:09:55 137.9125
SWISSCUBE 04 Dec 16:06:40 16:09:13 15° 298° (WNW) 16:11:47 437.505
CUTE-I 04 Dec 16:10:14 16:13:53 19° 62° (ENE) 16:17:31 437.470
BEESAT 04 Dec 16:10:52 16:13:29 15° 298° (WNW) 16:16:05 436.000
Cosmos 2491 04 Dec 16:31:43 16:37:57 21° 64° (ENE) 16:44:08 435.465 / 435.565
Cubesat XI-IV 04 Dec 16:34:24 16:39:00 30° 66° (ENE) 16:43:38 437.490
NOAA 15 04 Dec 16:37:42 16:42:24 35° 68° (ENE) 16:47:08 137.62
KKS-1 04 Dec 16:37:44 16:42:09 58° 287° (WNW) 16:46:32 437.445
STARS 04 Dec 16:48:41 16:53:08 85° 99° (E) 16:57:32 437.465
AO-7 04 Dec 16:49:03 16:52:59 14° 272° (W) 16:56:57 29.400- 29.500
HORYU 2 04 Dec 16:49:47 16:54:12 57° 259° (W) 16:58:38 437.375
ISS 04 Dec 16:52:14 16:55:31 85° 141° (SE) 16:58:50 145.825
GOMX 1 04 Dec 16:57:32 17:02:01 79° 76° (ENE) 17:06:52 467.674
LilacSat-2 04 Dec 17:01:40 17:05:23 47° 74° (ENE) 17:09:06 437.200
YUBILEINY 04 Dec 17:05:56 17:07:44 11° 72° (ENE) 17:09:31 435.215
AIST 2 04 Dec 17:06:35 17:10:48 68° 56° (NE) 17:15:00 435.215
O/OREOS (USA 219) 04 Dec 17:11:29 17:15:20 26° 301° (WNW) 17:19:12 437.305
HO-68 04 Dec 17:12:59 17:17:48 20° 56° (NE) 17:22:38 435.675
CINEMA 3 04 Dec 17:13:34 17:16:07 14° 62° (ENE) 17:18:42 145.822/145.860
BRITE-PL 04 Dec 17:13:51 17:17:29 27° 266° (W) 17:21:18 437.365/2234.400
DOVE 4 04 Dec 17:16:53 17:21:28 52° 72° (ENE) 17:26:22 437.250
CUBESAT XI-V 04 Dec 17:29:03 17:33:33 50° 287° (WNW) 17:38:04 437.345
NOAA 18 04 Dec 17:42:08 17:47:40 81° 74° (ENE) 17:53:15 137.9125
CUTE-I 04 Dec 17:48:07 17:53:26 60° 259° (W) 17:58:45 437.470
CUTE 1.7 + AOD 2 04 Dec 17:51:04 17:53:43 16° 66° (ENE) 17:56:21 437.475
CANX-2 04 Dec 18:07:35 18:11:11 28° 70° (ENE) 18:14:48 2200.000
